Date,TemperatureHighF,TemperatureAvgF,TemperatureLowF,DewpointHighF,DewpointAvgF,DewpointLowF,HumidityHigh,HumidityAvg,HumidityLow,PressureMaxIn,PressureMinIn,WindSpeedMaxMPH,WindSpeedAvgMPH,GustSpeedMaxMPH,PrecipitationSumIn
2013-1-1,48,46,43,49,42,31,100,86,56,30.13,29.95,4,0,9,0.36
2013-1-2,50,46,44,48,43,-100,100,93,82,30.16,29.90,7,-10,8,0.09
2013-1-3,44,39,29,42,37,29,100,92,84,30.29,30.10,5,1,8,0.00
2013-1-4,49,35,24,33,26,20,100,73,42,30.37,30.24,5,1,9,0.00
2013-1-5,46,36,23,34,26,21,97,69,45,30.41,30.25,4,0,8,0.00
2013-1-6,53,44,38,43,38,31,93,81,66,30.25,30.04,7,1,13,0.01
2013-1-7,50,39,26,33,30,26,99,73,46,30.43,30.20,8,1,9,0.00
2013-1-8,51,39,27,42,35,26,100,85,66,30.48,30.37,4,0,4,0.00
2013-1-9,62,51,39,54,47,38,98,87,71,30.45,30.37,1,0,4,0.00
2013-1-10,66,55,45,53,49,44,100,83,63,30.49,30.35,4,0,8,0.00
2013-1-11,53,47,45,49,47,45,100,99,80,30.36,30.15,7,1,8,0.12
2013-1-12,70,58,47,66,56,47,100,96,82,30.16,30.07,2,0,8,0.00
2013-1-13,69,61,56,63,59,56,100,95,78,30.12,30.03,5,1,14,0.01
2013-1-14,64,61,59,64,61,59,100,100,98,30.11,30.03,5,1,10,0.29
2013-1-15,60,47,40,60,47,41,100,100,100,30.16,30.05,13,3,13,0.14
2013-1-16,49,44,40,49,44,40,100,100,100,30.06,29.97,6,1,9,0.21
2013-1-17,49,44,32,49,44,33,100,100,99,30.20,29.78,16,3,29,1.94
2013-1-18,48,36,28,35,29,24,100,78,40,30.52,30.20,8,0,10,0.01
2013-1-19,52,36,26,33,29,26,100,79,41,30.50,30.18,7,1,14,0.00
2013-1-20,63,45,29,38,31,26,96,63,32,30.18,30.02,10,1,13,0.00
2013-1-21,59,42,27,36,28,18,100,63,32,30.08,29.92,12,2,23,0.00
2013-1-22,41,34,26,18,11,1,70,41,21,30.27,30.02,11,2,18,0.00
2013-1-23,45,33,20,29,20,12,85,61,39,30.36,30.08,5,1,15,0.00
2013-1-24,46,38,25,33,20,7,82,51,27,30.50,29.99,12,3,20,0.00
2013-1-25,26,24,20,25,17,10,98,77,54,30.52,30.14,7,1,10,0.02
2013-1-26,46,33,24,36,29,24,100,89,56,30.37,30.12,2,0,4,0.02
2013-1-27,43,35,26,34,29,25,99,78,58,30.57,30.37,4,1,9,0.00
2013-1-28,50,41,35,45,36,30,98,83,72,30.48,30.26,8,2,12,0.00
2013-1-29,69,56,39,60,52,39,100,88,73,30.26,30.01,12,2,15,0.00
2013-1-30,70,63,48,63,60,45,100,91,73,30.00,29.44,30,7,35,1.30
2013-1-31,48,41,34,45,28,21,93,61,38,30.03,29.53,17,3,20,0.00
2013-2-1,39,34,25,30,16,9,69,49,31,30.38,29.92,17,3,24,0.00
2013-2-2,43,32,21,35,21,12,97,68,35,30.40,30.06,12,2,18,0.00
2013-2-3,51,40,30,35,29,23,99,67,36,30.05,29.87,11,2,21,0.00
2013-2-4,49,37,25,29,25,21,89,64,40,30.14,30.01,8,2,12,0.00
2013-2-5,63,47,34,43,36,29,92,68,45,30.00,29.88,10,1,14,0.00
2013-2-6,63,47,33,40,32,23,100,62,24,30.21,29.98,7,1,9,0.00
2013-2-7,44,40,37,39,34,27,100,80,51,30.26,30.02,11,4,16,0.55
2013-2-8,58,46,37,49,38,28,100,79,49,30.12,29.88,10,2,16,0.01
2013-2-9,58,43,27,29,25,20,91,54,24,30.33,30.11,4,1,12,0.00
2013-2-10,55,43,33,44,32,25,99,68,34,30.44,30.19,8,1,14,0.14
2013-2-11,55,49,42,55,49,42,100,100,99,30.16,29.96,4,1,14,0.11
2013-2-12,57,48,40,49,35,-100,100,70,38,30.10,29.89,4,-10,6,0.04
2013-2-13,47,43,38,46,42,32,100,95,74,29.91,29.67,6,1,12,0.04
2013-2-14,50,39,28,36,32,27,100,78,54,30.07,29.89,9,1,15,0.00
2013-2-15,60,44,27,39,34,27,100,72,39,30.11,29.93,12,2,16,0.00
2013-2-16,44,35,28,33,29,18,98,77,61,30.03,29.83,8,1,14,0.03
2013-2-17,41,31,18,22,15,12,92,55,31,30.28,30.03,10,1,17,0.04
2013-2-18,53,38,22,28,23,13,97,59,37,30.40,30.22,9,2,16,0.00
2013-2-19,50,41,34,44,33,18,100,76,33,30.22,29.88,13,2,18,0.19
2013-2-20,55,40,25,29,18,11,93,45,18,30.12,30.03,6,1,11,0.00
2013-2-21,57,42,25,39,22,11,92,49,26,30.25,30.09,4,0,10,0.04
2013-2-22,41,37,36,39,37,36,100,99,89,30.30,30.13,7,1,9,0.21
2013-2-23,43,39,35,43,38,35,100,99,97,30.16,29.86,5,1,8,0.32
2013-2-24,62,49,37,44,36,27,100,68,29,30.02,29.86,7,1,9,0.00
2013-2-25,42,40,37,31,28,26,68,64,60,30.17,30.00,7,2,13,0.00
2013-2-26,39,34,31,39,34,28,100,98,70,30.08,29.62,11,3,18,1.01
2013-2-27,54,44,32,40,37,32,100,78,56,29.82,29.66,8,2,16,0.00
2013-2-28,47,39,30,35,29,26,99,69,46,29.91,29.72,13,2,24,0.00
2013-3-1,46,37,25,32,29,24,99,74,55,29.95,29.88,7,1,8,0.00
2013-3-2,45,36,30,36,25,-100,100,75,59,29.95,29.83,7,-20,11,0.03
2013-3-3,44,32,23,26,21,17,97,65,40,30.03,29.90,9,2,16,0.00
2013-3-4,54,39,23,26,20,16,80,50,25,30.16,30.02,7,1,10,0.00
2013-3-5,49,43,38,45,37,24,100,82,49,30.07,29.63,6,1,11,0.58
2013-3-6,45,38,30,41,26,22,100,65,48,30.13,29.64,16,4,27,0.59
2013-3-7,54,38,23,31,27,22,100,69,39,30.28,30.13,8,1,12,0.00
2013-3-8,56,41,25,29,25,23,94,58,28,30.33,30.20,8,2,17,0.00
2013-3-9,61,45,28,38,31,25,93,60,35,30.36,30.23,4,0,9,0.00
2013-3-10,64,51,35,39,37,33,96,62,36,30.29,30.16,9,1,13,0.00
2013-3-11,66,54,42,54,45,34,100,72,57,30.18,29.84,16,4,24,0.22
2013-3-12,65,57,46,56,46,30,100,73,30,29.98,29.73,11,3,18,0.04
2013-3-13,54,43,32,34,27,20,95,57,33,30.17,29.98,12,2,19,0.04
2013-3-14,51,39,29,24,19,16,66,46,28,30.31,30.17,9,1,16,0.00
2013-3-15,66,48,27,42,32,20,91,58,39,30.21,29.90,10,2,16,0.00
2013-3-16,76,64,52,50,46,43,73,54,40,29.90,29.71,10,2,24,0.00
2013-3-17,74,60,44,55,46,40,85,62,40,30.07,29.82,12,2,15,0.00
2013-3-18,44,39,38,40,39,38,100,98,87,30.12,29.86,8,2,13,0.57
2013-3-19,63,49,39,45,32,18,100,60,22,30.05,29.85,10,2,25,0.01
2013-3-20,55,48,42,23,18,13,40,32,22,30.11,29.79,11,2,19,0.00
2013-3-21,44,36,28,29,16,11,69,46,32,29.98,29.81,9,2,17,0.00
2013-3-22,50,37,24,28,21,15,89,54,30,30.10,29.98,9,1,15,0.00
2013-3-23,52,44,38,43,37,27,97,77,54,30.06,29.90,5,0,7,0.02
2013-3-24,42,40,38,42,40,37,100,98,93,29.94,29.56,13,3,17,0.62
2013-3-25,44,39,36,38,29,21,100,72,42,29.91,29.56,13,3,19,0.04
2013-3-26,46,37,27,27,25,23,87,63,44,30.20,29.91,12,2,17,0.00
2013-3-27,51,39,27,28,24,22,87,58,39,30.28,30.18,8,2,14,0.00
2013-3-28,56,41,25,29,25,22,94,58,29,30.32,30.20,6,1,12,0.00
2013-3-29,61,44,27,40,30,25,96,62,29,30.36,30.19,7,1,11,0.00
2013-3-30,64,52,43,47,44,40,100,76,49,30.23,30.04,7,1,9,0.21
2013-3-31,70,56,48,58,52,45,100,87,61,30.04,29.80,9,1,16,0.37
2013-4-1,69,60,51,54,46,37,100,65,35,29.95,29.82,10,2,21,0.00
2013-4-2,63,54,41,36,32,22,80,47,22,30.14,29.95,10,1,17,0.00
2013-4-3,58,51,42,31,25,20,46,37,30,30.27,30.11,7,2,16,0.00
2013-4-4,50,41,35,37,32,24,100,75,43,30.25,29.99,10,3,17,0.61
2013-4-5,64,50,36,46,41,36,100,75,42,30.05,29.91,6,1,12,0.00
2013-4-6,68,54,34,43,38,33,99,60,32,30.22,30.05,5,1,13,0.00
2013-4-7,69,58,41,50,46,40,96,67,47,30.24,30.08,9,2,16,0.00
2013-4-8,76,64,49,58,53,47,100,70,46,30.15,30.03,8,2,18,0.00
2013-4-9,81,68,53,61,56,51,97,68,46,30.17,30.06,9,1,14,0.00
2013-4-10,83,70,56,62,59,55,97,70,45,30.09,29.91,11,1,16,0.00
2013-4-11,78,68,57,67,62,57,100,82,59,29.95,29.70,10,3,21,0.15
2013-4-12,79,68,59,67,56,40,100,72,34,29.79,29.62,8,2,18,1.39
2013-4-13,75,61,42,46,41,37,99,54,25,30.01,29.80,5,1,10,0.00
2013-4-14,73,59,43,54,47,41,98,66,37,30.08,29.96,8,1,14,0.02
2013-4-15,64,58,54,60,56,54,100,94,85,30.19,29.97,9,2,10,0.05
2013-4-16,77,64,56,63,59,56,100,83,57,30.28,30.16,7,1,10,0.00
2013-4-17,79,66,56,65,61,56,100,84,58,30.23,30.08,9,1,12,0.00
2013-4-18,77,67,58,64,61,58,100,83,57,30.13,29.95,14,2,18,0.00
2013-4-19,74,64,52,67,62,51,100,93,76,29.95,29.72,17,4,22,0.37
2013-4-20,63,52,41,50,36,30,96,58,34,30.26,29.89,9,1,12,0.00
2013-4-21,62,51,42,43,38,32,82,63,48,30.43,30.26,9,2,13,0.00
2013-4-22,62,51,42,41,37,34,89,62,37,30.43,30.21,11,2,15,0.00
2013-4-23,70,55,42,51,44,35,84,68,45,30.27,30.09,8,1,10,0.00
2013-4-24,70,59,47,58,54,47,100,86,63,30.12,29.98,9,2,16,0.00
2013-4-25,69,59,50,58,44,31,99,61,33,30.27,30.03,6,1,11,0.00
2013-4-26,70,57,42,46,39,32,85,53,33,30.43,30.27,8,1,13,0.00
2013-4-27,61,55,52,55,51,45,100,87,62,30.34,30.23,3,0,5,0.44
2013-4-28,54,52,52,54,52,52,100,100,100,30.25,30.04,4,0,9,1.57
2013-4-29,70,60,53,62,57,53,100,93,68,30.06,29.92,6,0,11,0.09
2013-4-30,72,62,54,62,59,54,100,90,67,30.15,29.96,8,1,14,0.00
2013-5-1,64,58,51,58,56,51,100,92,78,30.27,30.15,7,1,14,0.01
2013-5-2,60,56,54,57,56,54,100,97,90,30.29,30.21,6,1,11,0.09
2013-5-3,64,58,54,56,54,51,100,85,72,30.22,30.09,10,2,18,0.01
2013-5-4,58,54,48,52,49,44,96,83,74,30.10,29.96,10,2,20,0.00
2013-5-5,57,51,48,57,51,48,100,100,97,30.02,29.81,13,2,17,1.54
2013-5-6,65,58,51,58,53,48,100,86,56,29.89,29.81,7,1,12,1.14
2013-5-7,68,55,43,55,50,43,100,85,47,29.94,29.85,8,1,11,0.02
2013-5-8,74,62,49,60,55,49,100,82,56,30.00,29.91,6,1,9,0.02
2013-5-9,80,64,49,62,56,49,100,79,47,30.07,29.98,4,0,7,0.00
2013-5-10,79,67,53,65,60,53,100,81,54,30.06,29.92,10,1,14,0.00
2013-5-11,77,68,61,65,62,59,99,83,61,29.94,29.77,6,1,16,0.00
2013-5-12,72,62,50,61,46,30,100,63,22,30.04,29.82,6,1,13,0.01
2013-5-13,68,54,39,43,38,33,100,58,30,30.18,30.04,6,1,10,0.00
2013-5-14,70,57,39,50,42,35,97,61,40,30.25,30.06,7,1,14,0.00
2013-5-15,86,69,50,65,58,49,99,70,48,30.07,29.91,8,1,14,0.00
2013-5-16,80,70,56,65,60,55,100,76,48,30.00,29.92,4,0,9,0.00
2013-5-17,83,71,58,68,63,58,100,78,51,30.06,29.98,5,0,10,0.00
2013-5-18,68,65,62,67,64,62,100,96,87,30.11,30.03,2,0,5,0.20
2013-5-19,75,68,64,70,66,64,100,95,81,30.09,29.98,4,0,8,0.01
2013-5-20,81,70,64,70,67,64,100,89,63,30.12,29.97,4,0,7,0.08
2013-5-21,87,72,62,72,67,63,100,87,56,30.02,29.90,12,1,15,0.00
2013-5-22,81,70,62,71,66,62,100,89,67,29.98,29.84,10,2,14,0.37
2013-5-23,77,66,62,70,65,61,100,95,76,29.96,29.80,8,0,11,0.46
2013-5-24,71,63,54,60,51,42,98,67,38,30.19,29.86,10,1,20,0.00
2013-5-25,76,59,41,51,46,41,100,64,35,30.30,30.14,4,0,11,0.00
2013-5-26,73,62,54,56,51,43,91,67,49,30.28,30.15,6,0,8,0.00
2013-5-27,80,66,51,63,57,51,100,75,50,30.26,30.11,6,1,9,0.00
2013-5-28,80,70,60,67,64,60,99,80,61,30.21,30.12,7,1,10,0.00
2013-5-29,82,71,58,67,63,58,100,77,53,30.22,30.12,4,1,9,0.00
2013-5-30,82,71,59,67,64,59,100,80,53,30.25,30.13,4,0,8,0.00
2013-5-31,83,73,64,69,66,63,100,81,58,30.20,30.07,5,1,10,0.00
2013-6-1,83,74,66,68,67,66,99,80,58,30.10,29.98,8,1,14,0.00
2013-6-2,76,71,65,72,68,65,100,92,82,30.01,29.87,6,1,11,0.25
2013-6-3,79,70,64,72,68,64,100,92,70,29.93,29.82,4,0,7,0.12
2013-6-4,81,72,64,70,66,64,100,85,64,30.03,29.92,4,0,9,0.04
2013-6-5,77,70,65,71,68,64,100,93,81,30.07,29.93,8,1,13,0.22
2013-6-6,74,69,66,73,69,66,100,99,93,29.95,29.77,5,1,9,0.19
2013-6-7,82,69,65,74,68,65,100,94,74,29.81,29.63,6,1,10,0.05
2013-6-8,82,72,65,71,67,65,100,87,65,30.05,29.80,6,1,8,0.01
2013-6-9,83,71,64,73,69,64,100,92,68,30.11,30.00,4,0,13,0.04
2013-6-10,77,70,66,73,69,66,100,95,83,30.04,29.88,8,2,14,0.29
2013-6-11,86,74,65,71,66,64,100,79,52,29.97,29.90,5,1,10,0.23
2013-6-12,90,76,62,78,71,62,100,85,62,29.98,29.86,4,0,10,0.00
2013-6-13,91,78,69,75,71,65,100,80,52,29.85,29.63,9,1,17,0.00
2013-6-14,81,72,61,65,58,55,85,63,42,30.00,29.74,13,2,15,0.00
2013-6-15,83,70,56,65,61,56,100,75,51,30.12,30.01,6,1,9,0.00
2013-6-16,84,73,62,69,66,61,98,79,57,30.12,29.99,7,1,13,0.00
2013-6-17,82,73,69,74,70,68,100,90,74,30.00,29.91,5,1,11,0.09
2013-6-18,81,71,66,74,70,67,100,96,76,29.93,29.75,7,1,17,0.29
2013-6-19,81,73,64,69,66,64,100,83,59,30.07,29.87,5,0,9,0.00
2013-6-20,82,72,64,70,66,64,100,84,60,30.20,30.08,5,0,9,0.00
2013-6-21,83,72,61,67,64,61,100,80,56,30.25,30.14,5,0,9,0.00
2013-6-22,84,72,60,69,65,60,100,79,52,30.20,30.08,4,0,9,0.00
2013-6-23,86,74,64,73,69,64,100,86,62,30.18,30.08,5,0,13,0.01
2013-6-24,85,75,66,75,71,66,100,89,68,30.18,30.07,9,1,13,0.02
2013-6-25,88,74,66,74,70,66,100,90,58,30.11,29.98,7,1,12,0.85
2013-6-26,87,75,66,76,71,66,100,90,64,30.02,29.88,6,0,9,0.00
2013-6-27,86,76,71,78,73,71,100,91,69,29.91,29.69,10,1,15,0.05
2013-6-28,90,78,66,77,72,67,100,85,59,29.75,29.55,5,1,13,0.25
2013-6-29,85,75,67,74,70,67,100,86,62,29.67,29.59,7,1,11,0.01
2013-6-30,84,73,66,73,69,66,100,90,65,29.81,29.66,5,1,10,0.02
2013-7-1,79,72,66,72,69,66,100,92,74,29.93,29.79,5,1,11,0.01
2013-7-2,77,72,69,73,71,69,100,97,85,30.11,29.93,5,2,17,0.66
2013-7-3,77,71,66,74,69,-100,100,96,87,30.19,30.09,4,-11,10,0.18
2013-7-4,82,70,66,76,67,-100,100,94,77,30.20,30.11,9,-20,17,1.42
2013-7-5,80,71,68,77,71,68,100,99,87,30.21,30.15,7,0,16,0.60
2013-7-6,84,74,69,74,71,69,100,93,72,30.21,30.07,5,1,10,0.13
2013-7-7,82,75,71,76,73,71,100,93,78,30.15,30.03,5,1,12,0.04
2013-7-8,83,75,70,76,73,70,100,92,74,30.15,30.07,4,0,8,0.02
2013-7-9,87,77,68,77,73,68,100,88,68,30.13,30.01,4,1,9,0.02
2013-7-10,84,73,67,77,71,67,100,95,78,30.10,29.92,4,0,9,0.02
2013-7-11,75,71,68,75,71,68,100,100,100,29.94,29.85,2,0,6,0.03
2013-7-12,81,73,67,74,70,67,100,92,75,29.98,29.86,5,0,11,0.01
2013-7-13,78,72,67,72,70,67,100,93,82,30.08,29.98,7,1,10,0.49
2013-7-14,84,74,70,77,72,70,100,95,73,30.25,30.07,11,1,22,0.17
2013-7-15,86,75,68,74,71,68,100,88,65,30.30,30.21,4,0,8,0.01
2013-7-16,90,78,67,76,72,67,100,84,59,30.28,30.18,1,0,5,0.00
2013-7-17,91,76,67,81,73,67,100,91,65,30.21,30.08,9,0,15,0.03
2013-7-18,88,76,66,78,72,66,100,89,66,30.15,30.04,6,0,8,0.00
2013-7-19,87,77,68,77,73,68,100,88,68,30.09,29.95,8,1,10,0.00
2013-7-20,83,74,69,77,72,69,100,96,79,30.00,29.91,3,1,9,0.22
2013-7-21,85,73,68,77,71,68,100,95,73,29.99,29.90,5,0,12,0.08
2013-7-22,82,74,69,75,72,69,100,94,77,29.98,29.81,5,1,12,0.02
2013-7-23,88,76,68,75,71,68,100,86,54,29.84,29.74,6,0,11,0.00
2013-7-24,89,76,68,77,70,-100,100,85,57,29.82,29.71,8,-10,25,0.02
2013-7-25,82,73,66,72,68,65,100,88,67,30.00,29.81,5,0,10,0.00
2013-7-26,83,74,65,73,69,65,100,86,66,30.07,29.98,5,0,9,0.00
2013-7-27,77,72,68,74,71,68,100,97,90,29.99,29.88,6,1,13,1.21
2013-7-28,83,73,67,75,70,67,100,91,68,29.96,29.89,3,0,7,0.00
2013-7-29,86,74,64,71,68,64,100,85,59,30.13,29.97,2,0,6,0.00
2013-7-30,83,74,65,73,68,62,100,84,64,30.19,30.10,4,0,7,0.00
2013-7-31,78,72,68,75,71,68,100,97,86,30.13,29.96,3,0,16,0.27
2013-8-1,83,74,69,76,72,69,100,93,74,29.96,29.86,2,0,7,0.46
2013-8-2,85,76,66,75,70,67,100,85,64,30.00,29.89,3,0,7,0.01
2013-8-3,86,77,69,76,72,69,100,86,59,29.99,29.91,3,0,9,0.00
2013-8-4,86,76,67,73,70,67,100,84,61,29.99,29.90,4,0,10,0.00
2013-8-5,81,73,67,72,68,65,96,86,71,30.04,29.95,3,0,10,0.00
2013-8-6,73,70,66,71,69,66,100,99,89,30.03,29.95,5,0,8,0.46
2013-8-7,79,73,68,74,71,68,100,94,78,30.06,29.98,5,0,8,0.00
2013-8-8,83,76,69,76,73,69,100,93,76,30.03,29.96,8,1,12,0.01
2013-8-9,88,76,71,78,74,71,100,93,72,30.04,29.96,9,1,15,0.02
2013-8-10,88,75,71,79,74,71,100,94,71,30.09,30.02,8,1,11,0.11
2013-8-11,90,76,67,78,72,67,100,90,62,30.10,30.01,3,0,7,0.01
2013-8-12,89,77,68,78,73,68,100,89,66,30.04,29.92,3,0,8,0.01
2013-8-13,87,75,70,77,72,70,100,92,66,29.93,29.77,4,0,11,0.05
2013-8-14,78,70,64,70,66,62,100,88,65,30.04,29.84,4,0,7,0.01
2013-8-15,72,65,59,62,60,58,97,84,66,30.14,30.04,5,0,12,0.00
2013-8-16,70,63,59,64,61,58,99,91,78,30.15,30.07,4,0,10,0.02
2013-8-17,66,62,61,63,61,59,100,96,91,30.18,30.12,5,1,10,0.19
2013-8-18,78,69,62,72,67,62,100,94,78,30.21,30.11,1,0,4,0.05
2013-8-19,77,69,66,71,68,66,100,96,79,30.17,30.07,4,0,7,0.56
2013-8-20,79,71,65,73,69,65,100,94,80,30.17,30.09,0,0,0,0.00
2013-8-21,79,71,68,75,71,68,100,99,87,30.21,30.09,2,0,9,1.05
2013-8-22,87,75,68,75,71,68,100,88,62,30.14,29.99,5,0,7,0.01
2013-8-23,88,71,64,74,68,64,100,93,59,30.04,29.94,6,0,10,0.50
2013-8-24,79,69,62,67,63,60,100,83,58,30.27,30.05,6,1,12,0.00
2013-8-25,79,68,58,66,62,58,100,83,55,30.37,30.26,4,0,10,0.00
2013-8-26,81,68,56,69,63,56,100,86,58,30.31,30.10,2,0,6,0.00
2013-8-27,88,72,60,74,68,60,100,87,61,30.13,29.97,2,0,6,0.00
2013-8-28,86,75,65,77,71,65,100,89,69,30.00,29.90,7,0,7,0.00
2013-8-29,92,78,68,77,72,68,100,83,53,29.94,29.85,6,0,9,0.00
2013-8-30,84,75,70,74,72,70,100,89,68,30.02,29.90,3,0,7,0.01
2013-8-31,87,72,66,76,70,66,100,94,70,29.94,29.84,5,0,21,0.95
2013-9-1,86,70,65,77,66,-100,100,92,73,29.89,29.77,7,-20,25,0.64
2013-9-2,86,75,66,77,72,66,100,92,68,29.88,29.78,3,0,7,0.01
2013-9-3,88,76,68,74,70,67,100,85,56,29.94,29.78,4,0,12,0.00
2013-9-4,84,72,63,72,67,63,100,86,62,30.07,29.93,3,0,6,0.00
2013-9-5,86,72,63,72,67,62,100,86,48,30.10,30.02,4,0,5,0.01
2013-9-6,82,71,62,68,64,61,100,82,57,30.17,30.05,3,0,11,0.00
2013-9-7,81,70,60,70,65,60,100,87,64,30.12,29.96,3,0,10,0.00
2013-9-8,84,72,61,74,68,61,100,88,64,29.97,29.90,3,0,6,0.00
2013-9-9,86,74,64,73,69,64,100,85,57,30.11,29.97,3,0,7,0.00
2013-9-10,87,74,64,74,69,64,100,86,56,30.21,30.11,3,0,5,0.00
2013-9-11,86,74,64,74,69,64,100,86,56,30.19,30.06,4,0,8,0.00
2013-9-12,87,72,65,76,70,65,100,92,64,30.05,29.83,2,0,16,0.02
2013-9-13,83,72,64,68,63,53,100,77,52,29.88,29.76,6,1,10,0.00
2013-9-14,75,64,54,60,56,51,95,76,56,30.10,29.89,8,1,12,0.00
2013-9-15,78,65,55,68,62,55,100,89,69,30.20,30.09,4,0,6,0.00
2013-9-16,83,72,61,70,64,61,100,81,51,30.13,30.03,5,0,7,0.00
2013-9-17,72,66,62,63,59,57,88,77,64,30.28,30.14,9,1,11,0.00
2013-9-18,73,65,58,62,58,54,91,80,64,30.29,30.14,3,0,9,0.00
2013-9-19,79,68,58,68,62,59,100,85,63,30.17,30.06,5,0,7,0.00
2013-9-20,83,71,59,71,66,59,100,86,60,30.07,29.89,5,0,8,0.00
2013-9-21,70,66,62,70,66,62,100,100,98,29.90,29.67,8,1,14,1.90
2013-9-22,75,65,56,62,59,56,100,83,54,29.89,29.70,7,0,10,0.00
2013-9-23,72,63,56,62,58,54,100,85,64,30.04,29.89,3,0,8,0.00
2013-9-24,74,64,56,64,61,56,100,89,65,30.07,29.92,1,0,7,0.00
2013-9-25,67,62,60,63,61,60,100,97,82,29.92,29.85,1,0,4,0.38
2013-9-26,74,64,56,63,58,55,100,84,57,30.02,29.87,8,0,11,0.00
2013-9-27,74,62,52,60,56,52,100,84,60,30.17,30.02,6,0,11,0.00
2013-9-28,70,60,52,58,55,52,100,85,63,30.25,30.15,5,0,10,0.00
2013-9-29,71,61,52,60,56,52,99,87,65,30.18,30.03,3,0,6,0.00
2013-9-30,75,63,54,61,58,54,100,84,56,30.09,29.98,3,0,6,0.00
2013-10-1,60,60,60,59,59,59,97,97,97,30.06,30.06,0,0,0,0.00
2013-10-7,75,67,60,70,64,55,100,90,77,29.98,29.78,6,1,11,1.88
2013-10-8,68,60,54,56,51,48,84,72,58,30.19,29.98,9,2,15,0.00
2013-10-9,70,58,50,51,48,46,86,71,49,30.22,30.11,9,2,16,0.00
2013-10-10,74,60,44,62,54,44,100,82,55,30.13,29.98,7,0,10,0.00
2013-10-11,79,64,51,64,58,51,100,83,54,30.00,29.89,2,0,6,0.00
2013-10-12,73,62,52,64,60,52,100,91,70,30.08,29.95,1,0,6,0.00
2013-10-13,71,65,60,64,62,61,100,92,77,30.19,30.08,6,1,10,0.02
2013-10-14,69,63,60,63,61,59,99,91,79,30.23,30.12,6,1,12,0.00
2013-10-15,70,62,56,60,57,56,98,86,61,30.19,30.03,6,1,10,0.00
2013-10-16,69,60,50,62,58,51,100,92,76,30.08,29.95,4,0,4,0.00
2013-10-17,67,62,58,65,62,58,100,99,90,29.96,29.84,3,0,8,0.08
2013-10-18,69,60,52,62,57,52,100,92,69,30.02,29.88,2,0,7,0.01
2013-10-19,61,57,50,61,57,50,100,99,94,29.96,29.84,5,0,8,0.02
2013-10-20,64,51,41,51,47,41,100,87,57,30.10,29.92,3,0,7,0.01
2013-10-21,66,53,40,56,49,41,100,89,66,30.16,30.00,5,0,7,0.00
2013-10-22,64,58,53,59,56,53,100,93,77,30.02,29.78,3,0,8,0.01
2013-10-23,62,52,38,55,43,33,100,76,41,30.05,29.72,14,1,20,0.01
2013-10-24,58,44,32,47,38,32,100,82,49,30.18,30.05,3,0,10,0.00
2013-10-25,51,42,35,41,34,29,100,76,46,30.39,30.18,9,1,13,0.00
2013-10-26,55,41,29,40,34,29,100,79,48,30.39,30.09,5,0,12,0.00
2013-10-27,65,50,37,52,45,37,100,83,57,30.15,30.05,4,0,9,0.00
2013-10-28,67,55,45,57,52,45,100,90,65,30.25,30.11,3,0,7,0.00
2013-10-29,70,58,49,58,54,49,100,88,60,30.34,30.23,3,0,6,0.00
2013-10-30,75,61,50,61,56,50,100,85,57,30.28,30.14,8,0,10,0.00
2013-10-31,66,60,53,64,58,53,100,93,83,30.16,29.88,8,1,13,0.00
2013-11-1,67,62,55,65,61,55,100,96,85,29.88,29.67,10,2,27,0.20
2013-11-2,67,54,44,57,48,39,100,83,43,29.99,29.71,3,0,11,0.05
2013-11-3,60,48,37,42,39,37,100,75,46,30.36,29.99,5,0,12,0.00
2013-11-4,56,45,37,38,36,35,93,73,47,30.53,30.38,8,0,11,0.00
2013-11-5,54,45,36,49,40,31,98,83,68,30.58,30.44,7,1,10,0.00
2013-11-6,67,55,49,56,51,48,100,88,66,30.43,30.13,3,0,10,0.00
2013-11-7,68,52,44,61,50,44,100,94,53,30.12,29.96,7,0,11,0.01
2013-11-8,57,46,37,31,29,23,71,54,27,30.32,30.23,1,0,6,0.00
2013-11-9,56,44,29,38,33,29,100,70,41,30.39,30.21,8,1,11,0.00
2013-11-10,70,52,37,43,37,34,99,63,30,30.23,30.12,6,0,8,0.00
2013-11-11,59,46,34,39,32,29,94,62,35,30.36,30.16,3,0,9,0.00
2013-11-12,64,42,29,41,32,17,100,71,36,30.48,30.07,17,2,25,0.00
2013-11-13,46,32,21,27,20,17,94,64,33,30.57,30.46,4,0,9,0.00
2013-11-14,55,37,22,28,24,22,100,66,29,30.50,30.34,7,1,13,0.00
2013-11-15,56,43,28,47,35,25,100,78,40,30.36,30.21,1,0,3,0.22
2013-11-16,61,53,46,56,51,47,100,95,83,30.28,30.19,3,0,7,0.02
2013-11-17,62,58,53,62,57,52,100,97,89,30.21,29.88,2,0,7,0.26
2013-11-18,73,61,48,63,49,34,100,69,29,29.99,29.82,10,1,13,0.00
2013-11-19,53,45,36,35,30,26,89,58,36,30.27,29.99,8,1,13,0.00
2013-11-20,50,42,35,35,32,29,83,68,51,30.46,30.26,9,1,13,0.00
2013-11-21,52,47,43,47,40,33,90,77,68,30.49,30.38,7,1,12,0.00
2013-11-22,61,53,47,58,53,47,100,98,92,30.41,30.11,4,0,9,0.05
2013-11-23,59,53,40,56,44,23,100,76,43,30.21,30.06,9,1,15,0.01
2013-11-24,40,34,27,23,14,6,63,46,24,30.53,30.21,11,2,15,0.00
2013-11-25,40,32,21,22,16,10,92,54,33,30.59,30.36,3,0,7,0.00
2013-11-26,43,36,30,43,34,21,100,95,54,30.35,29.63,8,1,13,2.98
2013-11-27,44,37,28,44,31,18,100,82,57,30.21,29.55,13,2,22,0.17
2013-11-28,43,31,20,31,23,18,100,74,45,30.50,30.22,5,0,8,0.00
2013-11-29,52,37,24,31,26,23,100,70,36,30.61,30.49,7,0,8,0.00
2013-11-30,44,35,29,30,26,24,95,71,48,30.65,30.39,7,1,12,0.00
2013-12-1,56,39,27,39,32,26,100,81,51,30.39,30.04,6,0,9,0.00
2013-12-2,58,43,28,43,36,28,100,81,50,30.04,29.83,3,0,5,0.00
2013-12-3,58,51,45,52,48,42,100,91,81,29.96,29.86,4,0,9,0.06
2013-12-4,59,55,51,59,55,51,100,100,100,30.07,29.94,5,0,7,0.07
2013-12-5,65,61,58,65,61,58,100,100,96,30.09,29.99,8,2,18,0.07
2013-12-6,74,67,64,66,64,62,100,91,70,30.04,29.93,17,4,23,0.01
2013-12-7,64,54,44,64,51,39,100,88,75,30.39,29.97,10,2,14,0.09
2013-12-8,44,36,33,39,36,33,100,96,81,30.41,30.29,6,2,11,0.24
2013-12-9,42,38,33,43,38,33,100,100,100,30.28,30.06,3,0,7,0.34
2013-12-10,51,43,30,50,37,19,100,83,46,30.33,29.92,5,1,15,0.20
2013-12-11,48,35,22,31,27,22,100,77,42,30.47,30.32,5,0,10,0.00
2013-12-12,46,34,23,28,22,14,100,69,27,30.43,30.31,6,0,9,0.00
2013-12-13,49,35,21,34,26,20,100,74,42,30.40,30.27,7,0,8,0.00
2013-12-14,42,38,37,39,36,32,100,91,74,30.28,29.82,7,1,14,0.80
2013-12-15,49,41,29,41,36,27,100,84,60,30.13,29.76,6,1,12,0.00
2013-12-16,56,40,26,38,32,25,100,76,46,30.19,30.10,7,1,11,0.01
2013-12-17,61,46,30,39,34,25,99,67,42,30.15,29.93,8,2,21,0.00
2013-12-18,51,40,29,29,22,16,89,53,26,30.30,30.07,5,0,16,0.00
2013-12-19,62,43,26,34,28,24,100,62,26,30.34,30.23,7,1,14,0.00
2013-12-20,58,48,38,49,42,31,97,81,68,30.25,30.14,7,1,10,0.00
2013-12-21,66,56,47,63,54,46,100,94,82,30.15,29.99,13,1,21,0.00
2013-12-22,69,64,60,66,63,60,100,98,90,30.04,29.96,13,4,23,1.20
2013-12-23,62,55,44,62,54,38,100,94,79,30.17,29.97,6,1,12,0.91
2013-12-24,44,37,28,39,28,18,96,70,45,30.45,30.16,9,1,15,0.00
2013-12-25,38,29,21,29,18,13,92,64,38,30.57,30.41,4,0,8,0.00
2013-12-26,51,35,24,30,26,21,99,71,40,30.42,30.27,3,0,5,0.00
2013-12-27,50,36,25,30,26,22,99,70,37,30.49,30.37,2,0,5,0.00
2013-12-28,50,37,23,39,31,23,100,81,50,30.43,30.16,3,0,9,0.10
2013-12-29,56,44,39,51,43,39,100,97,82,30.13,29.79,5,1,13,1.18
2013-12-30,51,41,31,45,39,31,100,94,77,30.13,29.95,1,0,3,0.00
2013-12-31,50,39,30,42,31,22,100,75,34,30.38,30.11,5,0,11,0.00
2014-1-1,46,36,28,34,31,28,100,81,53,30.41,30.16,5,0,11,0.00
2014-1-2,44,40,30,44,38,22,100,94,72,30.16,29.66,7,1,23,0.18